TimeEST,TemperatureF,Dew PointF,Humidity,Sea Level PressureIn,VisibilityMPH,Wind Direction,Wind SpeedMPH,Gust SpeedMPH,PrecipitationIn,Events,Conditions,WindDirDegrees,DateUTC
12:15 AM,37.2,34.2,89,29.95,10.0,SSW,4.6,-,N/A,,Clear,210,2012-12-19 05:15:00
12:35 AM,39.6,32.0,74,29.94,10.0,Calm,Calm,-,N/A,,Clear,0,2012-12-19 05:35:00
12:55 AM,39.2,32.2,76,29.93,10.0,SSW,4.6,-,N/A,,Clear,210,2012-12-19 05:55:00
1:15 AM,40.3,32.0,72,29.94,10.0,SSW,4.6,-,N/A,,Clear,210,2012-12-19 06:15:00
1:35 AM,40.6,32.4,72,29.95,10.0,Calm,Calm,-,N/A,,Clear,0,2012-12-19 06:35:00
1:55 AM,41.0,32.5,72,29.95,10.0,Calm,Calm,-,N/A,,Clear,0,2012-12-19 06:55:00
2:15 AM,41.4,32.5,71,29.95,10.0,SSW,4.6,-,N/A,,Clear,210,2012-12-19 07:15:00
2:35 AM,42.1,32.0,67,29.95,10.0,SSW,4.6,-,N/A,,Clear,210,2012-12-19 07:35:00
2:55 AM,42.4,32.0,67,29.95,10.0,Calm,Calm,-,N/A,,Clear,0,2012-12-19 07:55:00
3:15 AM,41.9,32.0,68,29.96,10.0,Calm,Calm,-,N/A,,Clear,0,2012-12-19 08:15:00
3:35 AM,41.9,31.8,67,29.96,10.0,SSW,3.5,-,N/A,,Clear,210,2012-12-19 08:35:00
3:55 AM,41.9,31.8,67,29.95,10.0,Calm,Calm,-,N/A,,Clear,0,2012-12-19 08:55:00
4:15 AM,41.2,32.0,70,29.95,10.0,Calm,Calm,-,N/A,,Clear,0,2012-12-19 09:15:00
4:35 AM,38.1,31.8,78,29.95,10.0,Calm,Calm,-,N/A,,Clear,0,2012-12-19 09:35:00
4:55 AM,36.7,32.7,86,29.96,10.0,Calm,Calm,-,N/A,,Clear,0,2012-12-19 09:55:00
5:15 AM,36.9,32.0,83,29.97,10.0,Calm,Calm,-,N/A,,Clear,0,2012-12-19 10:15:00
5:35 AM,37.0,32.9,85,29.97,10.0,SSW,4.6,-,N/A,,Clear,210,2012-12-19 10:35:00
5:55 AM,38.3,32.4,79,29.98,10.0,Calm,Calm,-,N/A,,Clear,0,2012-12-19 10:55:00
6:15 AM,37.2,31.8,81,29.98,7.0,Calm,Calm,-,N/A,,Clear,0,2012-12-19 11:15:00
6:35 AM,34.9,31.3,87,30.00,10.0,Calm,Calm,-,N/A,,Clear,0,2012-12-19 11:35:00
6:55 AM,34.2,31.5,90,30.00,10.0,Calm,Calm,-,N/A,,Clear,0,2012-12-19 11:55:00
7:15 AM,34.7,32.0,90,30.01,10.0,SSW,5.8,-,N/A,,Clear,210,2012-12-19 12:15:00
7:35 AM,37.0,32.7,84,30.01,10.0,SW,3.5,-,N/A,,Clear,220,2012-12-19 12:35:00
7:55 AM,37.9,32.2,80,30.02,10.0,Calm,Calm,-,N/A,,Clear,0,2012-12-19 12:55:00
8:15 AM,35.8,32.0,86,30.03,10.0,Calm,Calm,-,N/A,,Clear,0,2012-12-19 13:15:00
8:35 AM,37.6,33.8,86,30.05,10.0,Calm,Calm,-,N/A,,Clear,0,2012-12-19 13:35:00
8:55 AM,41.2,34.9,78,30.05,10.0,Calm,Calm,-,N/A,,Clear,0,2012-12-19 13:55:00
9:15 AM,45.0,36.5,72,30.05,10.0,Calm,Calm,-,N/A,,Clear,0,2012-12-19 14:15:00
9:35 AM,47.8,34.9,61,30.05,10.0,Calm,Calm,-,N/A,,Clear,0,2012-12-19 14:35:00
9:55 AM,49.6,34.9,57,30.06,10.0,Calm,Calm,-,N/A,,Clear,0,2012-12-19 14:55:00
10:15 AM,51.6,34.3,52,30.06,10.0,Calm,Calm,-,N/A,,Clear,0,2012-12-19 15:15:00
10:35 AM,54.1,35.4,49,30.07,10.0,Calm,Calm,-,N/A,,Clear,0,2012-12-19 15:35:00
10:55 AM,55.9,34.0,44,30.07,10.0,Calm,Calm,-,N/A,,Clear,0,2012-12-19 15:55:00
11:15 AM,57.9,33.8,40,30.06,10.0,Calm,Calm,-,N/A,,Clear,0,2012-12-19 16:15:00
11:35 AM,60.1,34.3,38,30.05,10.0,Calm,Calm,-,N/A,,Clear,0,2012-12-19 16:35:00
11:55 AM,61.5,34.5,36,30.05,10.0,SW,3.5,-,N/A,,Clear,230,2012-12-19 16:55:00
12:15 PM,61.9,34.0,35,30.04,10.0,Calm,Calm,-,N/A,,Clear,0,2012-12-19 17:15:00
12:35 PM,63.7,35.4,35,30.03,10.0,Calm,Calm,-,N/A,,Clear,0,2012-12-19 17:35:00
12:55 PM,64.0,34.3,33,30.03,10.0,Calm,Calm,-,N/A,,Clear,0,2012-12-19 17:55:00
1:15 PM,65.3,33.8,31,30.02,10.0,Calm,Calm,-,N/A,,Clear,0,2012-12-19 18:15:00
1:35 PM,66.2,33.3,29,30.02,10.0,SW,5.8,-,N/A,,Clear,230,2012-12-19 18:35:00
1:55 PM,66.9,32.4,28,30.02,10.0,West,5.8,-,N/A,,Clear,260,2012-12-19 18:55:00
2:15 PM,67.3,32.7,28,30.02,10.0,SW,6.9,-,N/A,,Clear,220,2012-12-19 19:15:00
2:35 PM,67.5,34.0,29,30.01,10.0,South,4.6,-,N/A,,Clear,170,2012-12-19 19:35:00
2:55 PM,66.9,32.2,27,30.01,10.0,SSW,5.8,-,N/A,,Clear,200,2012-12-19 19:55:00
3:15 PM,67.1,32.5,28,30.01,10.0,SSW,5.8,-,N/A,,Clear,200,2012-12-19 20:15:00
3:35 PM,67.1,32.0,27,30.01,10.0,SW,3.5,-,N/A,,Clear,220,2012-12-19 20:35:00
3:55 PM,66.6,32.9,29,30.02,10.0,SSW,3.5,-,N/A,,Clear,210,2012-12-19 20:55:00
4:15 PM,65.1,34.7,32,30.02,10.0,Calm,Calm,-,N/A,,Clear,0,2012-12-19 21:15:00
4:35 PM,63.7,36.5,36,30.03,10.0,South,3.5,-,N/A,,Clear,190,2012-12-19 21:35:00
4:55 PM,59.7,39.7,48,30.03,10.0,Calm,Calm,-,N/A,,Clear,0,2012-12-19 21:55:00
5:15 PM,60.1,38.7,45,30.04,10.0,Calm,Calm,-,N/A,,Clear,0,2012-12-19 22:15:00
5:35 PM,53.8,42.6,66,30.05,10.0,Calm,Calm,-,N/A,,Clear,0,2012-12-19 22:35:00
5:55 PM,53.1,42.8,68,30.05,10.0,Calm,Calm,-,N/A,,Clear,0,2012-12-19 22:55:00
6:15 PM,50.9,43.5,76,30.06,10.0,Calm,Calm,-,N/A,,Clear,0,2012-12-19 23:15:00
6:35 PM,49.8,43.0,77,30.07,10.0,Calm,Calm,-,N/A,,Clear,0,2012-12-19 23:35:00
6:55 PM,48.2,43.5,84,30.07,10.0,Calm,Calm,-,N/A,,Clear,0,2012-12-19 23:55:00
7:15 PM,47.1,43.5,87,30.08,10.0,Calm,Calm,-,N/A,,Clear,0,2012-12-20 00:15:00
7:35 PM,46.9,43.2,87,30.08,10.0,Calm,Calm,-,N/A,,Clear,0,2012-12-20 00:35:00
7:55 PM,45.9,42.8,89,30.08,10.0,Calm,Calm,-,N/A,,Clear,0,2012-12-20 00:55:00
8:15 PM,45.1,42.1,89,30.09,10.0,Calm,Calm,-,N/A,,Clear,0,2012-12-20 01:15:00
8:35 PM,45.0,42.1,90,30.09,10.0,Calm,Calm,-,N/A,,Clear,0,2012-12-20 01:35:00
8:55 PM,43.5,40.6,90,30.09,10.0,Calm,Calm,-,N/A,,Clear,0,2012-12-20 01:55:00
9:15 PM,43.2,40.3,90,30.10,10.0,Calm,Calm,-,N/A,,Clear,0,2012-12-20 02:15:00
9:35 PM,42.8,39.7,89,30.10,10.0,Calm,Calm,-,N/A,,Clear,0,2012-12-20 02:35:00
9:55 PM,43.2,40.5,90,30.11,10.0,Calm,Calm,-,N/A,,Clear,0,2012-12-20 02:55:00
10:15 PM,42.1,39.6,91,30.11,10.0,Calm,Calm,-,N/A,,Clear,0,2012-12-20 03:15:00
10:35 PM,41.9,40.1,93,30.11,10.0,Calm,Calm,-,N/A,,Clear,0,2012-12-20 03:35:00
10:55 PM,40.3,38.3,93,30.11,10.0,Calm,Calm,-,N/A,,Clear,0,2012-12-20 03:55:00
11:15 PM,40.3,38.5,93,30.11,10.0,Calm,Calm,-,N/A,,Clear,0,2012-12-20 04:15:00
11:35 PM,39.6,37.4,92,30.12,10.0,Calm,Calm,-,N/A,,Clear,0,2012-12-20 04:35:00
11:55 PM,40.3,38.5,93,30.11,10.0,Calm,Calm,-,N/A,,Clear,0,2012-12-20 04:55:00